Location: Concepci�n
(32.5333°N, 117.1167°W)
Time: 19:51:03
(UTC+00:00)

Cosmos 1484 Rocket - Pass Details

Date: 08 May 2021
Orbit: 504 x 559 km, 97.4° (Epoch: 18 June)

Event Time Altitude Azimuth Distance (km) Brightness Sun altitude
Rises 12:02:56 0° 13° (NNE) 2,734 7.0 -10.8°
Reaches altitude 10° 12:05:06 10° 15° (NNE) 1,829 6.1 -10.4°
Maximum altitude 12:09:03 76° 100° (E) 565 3.0 -9.7°
Drops below altitude 10° 12:12:55 10° 187° (S) 1,788 5.1 -8.9°
Sets 12:15:00 0° 189° (S) 2,665 6.0 -8.6°
